Location: Auckland
(36.8670°S, 174.7670°E)
Time: 12:46:01
(UTC+13:00)

Cosmos 1655 Rocket - Pass Details

Date: 24 January 2019
Orbit: 971 x 1005 km, 82.9° (Epoch: 19 February)

Event Time Altitude Azimuth Distance (km) Brightness Sun altitude
Rises 20:56:12 0° 356° (N) 3,698 6.8 -4.1°
Reaches altitude 10° 20:58:42 10° 356° (N) 2,752 6.1 -4.5°
Maximum altitude 21:05:02 90° 77° (ENE) 1,000 4.1 -5.6°
Drops below altitude 10° 21:11:24 10° 173° (S) 2,762 6.7 -6.7°
Sets 21:13:56 0° 173° (S) 3,712 7.4 -7.1°
